Dewpoint
47 44 41 43 44 44 40 40 38 33 40 35 36 34 33 35 41 48 50 53 54 56 57 57 56 56 57 58 58 59 60 60 60 60 59 59 60 61 61 61 61 61 61 61
42 40 43 45 45 44 41 39 37 40 42 36 39 36 37 36 35 45 48 49 52 53 51 51 53 53 54 55 56 57 58 59 60 60 60 60 59 60 59 59 60 60 59 58
39 40 44 44 44 42 43 38 37 37 42 41 40 37 37 34 31 36 43 43 49 51 49 43 46 49 48 43 49 55 57 58 58 59 58 57 55 54 53 54 54 55 54 54
40 43 44 43 42 42 39 43 41 40 37 36 42 35 40 37 35 31 34 26 38 38 38 41 41 44 46 46 46 44 43 44 44 48 52 52 53 52 52 51 51 50 51 52
39 42 43 42 41 42 40 43 41 41 38 37 38 35 38 36 36 30 22 25 28 31 36 37 39 39 39 39 39 40 40 41 42 42 44 46 45 48 48 48 48 49 49 49
36 38 42 42 42 42 41 39 38 37 37 31 36 36 37 39 38 41 27 29 30 32 34 35 36 37 38 38 39 39 39 40 41 41 42 44 44 44 44 45 45 46 47 48
37 37 36 44 41 42 40 38 29 28 29 30 34 35 37 33 44 43 40 37 37 35 35 35 35 36 37 37 38 38 39 38 40 40 40 41 41 42 42 43 44 45 47 47
33 30 36 41 39 38 38 35 30 23 24 25 28 31 32 28 25 45 47 44 44 40 39 37 36 36 37 37 37 37 38 38 38 39 39 39 39 40 41 42 43 45 46 46
30 32 37 37 39 39 37 35 31 22 18 22 27 28 23 24 25 36 34 36 39 38 37 36 35 35 35 35 36 36 36 36 36 37 38 39 39 39 39 40 41 42 43 43
34 30 36 37 39 39 36 34 30 29 21 18 18 13 14 22 24 28 29 30 32 32 31 31 31 31 32 33 33 33 33 33 33 34 36 37 38 38 38 38 38 39 39 41
34 33 32 37 35 36 28 33 23 24 24 17 14 12 15 21 25 27 29 31 31 30 30 30 30 31 31 31 33 32 32 32 31 33 35 35 35 35 36 36 37 37 38 38
36 35 29 31 34 34 32 24 20 23 18 16 17 17 25 25 26 27 28 30 30 29 29 29 30 30 29 30 31 31 30 30 30 32 33 33 31 31 31 31 32 34 34 35
35 32 26 28 31 30 30 26 22 22 22 20 20 17 24 25 26 29 29 28 28 28 28 29 29 29 28 28 29 31 30 29 29 30 31 30 28 29 28 29 30 30 30 31
37 27 24 23 23 28 27 26 23 21 22 19 13 19 22 25 28 29 27 27 26 27 28 28 28 28 27 27 27 29 27 27 27 27 28 28 27 27 26 27 27 27 28 28
35 22 26 27 26 28 27 27 25 23 19 14 16 21 22 25 28 27 26 25 26 27 27 26 27 27 26 25 25 24 24 26 26 24 24 24 25 24 24 24 24 24 25 25
35 29 28 25 26 29 27 27 27 26 28 27 25 28 27 26 28 26 25 25 26 27 26 26 26 26 24 23 22 22 22 24 24 23 23 23 23 23 23 23 23 22 22 22
33 28 22 19 26 26 24 27 27 28 28 28 25 28 23 24 26 25 24 25 27 28 26 26 26 25 23 22 22 21 22 23 23 23 21 22 22 22 22 22 21 21 21 22
30 26 23 22 23 21 22 17 28 28 25 25 24 24 22 26 26 25 25 26 28 27 26 26 24 23 22 22 21 21 22 22 22 20 19 20 20 20 20 20 19 20 20 21
32 28 21 21 14 17 12 18 26 27 23 21 21 22 26 26 26 25 26 28 27 26 26 24 24 23 20 20 21 21 21 21 19 17 17 18 19 18 18 18 18 19 20 20
22 24 24 10 13 4 12 19 21 22 22 20 21 25 25 25 21 23 25 26 26 25 25 21 21 20 19 20 20 20 18 18 15 16 16 17 17 16 16 17 17 18 19 19
11 13 15 13 13 14 13 16 19 17 20 21 20 24 26 18 19 24 26 24 24 22 22 19 18 18 18 19 18 16 16 14 15 15 15 15 15 15 15 16 16 17 17 17
9 9 8 3 3 10 13 20 13 19 22 22 22 22 21 25 24 24 24 23 19 18 19 19 15 15 16 17 16 14 13 13 14 13 13 13 14 14 14 15 15 15 16 16
8 11 13 13 13 15 21 24 24 23 21 22 23 25 26 25 23 24 22 20 18 17 17 16 14 14 14 15 14 11 11 12 12 10 10 11 13 14 13 12 13 13 14 15
19 19 19 18 16 18 19 25 22 21 22 25 26 25 24 23 23 22 20 17 15 15 14 15 14 13 13 13 12 11 11 11 7 7 9 10 10 10 10 11 11 12 13 13
17 20 15 17 20 20 21 24 24 25 25 25 23 23 22 22 21 19 17 14 12 13 14 13 12 11 10 9 8 8 8 7 6 7 7 8 8 7 8 8 9 11 12 14
19 18 17 14 19 19 18 21 25 24 23 23 21 19 18 17 17 14 13 11 12 11 11 10 8 7 5 4 4 4 3 3 2 4 5 5 5 5 6 6 7 12 14 15
Lifted_Index
3 3 3 2 2 1 1 1 1 1 2 2 1 1 0 0 -0 -0 -1 -2 -3 -3 -2 -2 -2 -3 -3 -3 -3 -2 -2 -2 -2 -2 -2 -1 -1 -1 -1 -1 -1 -1 -1 -0
4 3 3 3 2 2 1 1 1 1 2 1 1 1 1 0 -0 -0 -1 -2 -2 -2 -2 -2 -2 -2 -2 -2 -2 -3 -3 -2 -2 -2 -1 -1 -1 -1 -1 -1 -1 -0 0 0
4 4 4 3 3 2 1 1 1 1 1 1 1 1 1 1 0 -0 -0 -1 -2 -2 -2 -2 -2 -2 -2 -2 -2 -2 -2 -2 -2 -2 -1 -1 -1 -1 -0 0 1 2 2 3
5 5 4 3 3 2 2 2 2 1 1 1 1 1 1 1 1 0 0 -0 -1 -1 -1 -1 -1 -1 -1 -1 -1 -1 -1 -1 -1 -1 -1 0 1 2 3 4 5 6 6 6
5 5 4 3 3 3 2 2 2 1 1 1 1 1 1 1 1 1 1 2 1 1 2 2 2 2 2 2 2 2 2 2 2 2 3 4 6 7 8 9 9 9 9 9
5 4 4 3 3 3 2 2 1 1 1 1 1 2 2 2 2 3 3 4 4 5 5 6 7 7 7 7 7 7 7 7 7 7 8 9 10 10 11 11 11 11 10 10
4 4 4 3 3 3 2 2 1 1 1 1 2 2 2 3 3 4 4 5 6 6 7 8 9 10 10 10 10 10 10 10 10 10 10 11 11 11 11 11 11 11 10 10
3 3 3 3 3 3 2 2 1 1 1 1 2 2 3 4 5 5 4 5 5 6 7 8 9 10 10 10 10 10 10 10 11 11 11 11 11 11 11 11 11 11 10 10
2 2 2 2 2 2 2 2 2 1 1 1 1 2 3 5 6 6 5 5 6 7 7 8 9 9 10 10 10 10 10 11 11 11 11 11 11 11 11 11 11 11 10 10
1 1 1 1 2 2 2 2 2 1 1 1 1 2 3 4 5 6 6 7 7 8 9 9 9 10 10 10 11 11 12 12 12 12 12 12 12 11 11 11 11 11 11 11
1 1 1 1 2 2 2 2 2 1 1 1 1 2 4 5 5 5 6 7 8 9 9 9 9 10 10 10 11 11 12 12 12 12 12 12 12 12 11 11 11 11 11 11
1 1 1 1 1 2 2 1 2 1 1 1 1 3 6 7 7 6 6 7 8 8 9 9 9 9 10 10 11 11 12 13 13 13 12 12 12 12 12 12 12 12 12 12
2 1 1 0 1 1 1 1 1 1 1 1 2 3 6 8 7 7 7 8 8 8 8 8 8 9 9 10 11 12 12 13 13 13 13 13 13 13 14 14 14 14 14 13
2 2 1 1 1 1 1 1 1 1 1 2 2 4 6 7 7 7 7 7 6 6 7 7 8 8 9 10 11 12 12 13 13 13 13 13 14 15 15 15 15 15 14 14
1 1 1 1 1 1 1 1 2 2 2 2 3 5 5 6 5 5 5 5 5 5 6 7 7 8 9 10 11 11 12 12 13 13 13 14 14 15 15 15 14 14 13 13
1 1 1 1 1 1 1 2 2 3 3 3 4 5 5 5 4 4 4 4 4 5 6 6 7 8 9 10 11 11 12 13 13 13 14 14 14 14 14 14 13 13 13 13
2 2 1 1 1 1 1 2 3 3 3 4 4 5 5 4 4 4 4 4 4 5 5 6 7 8 9 10 11 12 13 13 13 13 13 13 14 13 13 13 13 13 13 13
2 2 2 1 1 1 2 2 3 3 3 4 4 4 4 4 3 3 3 4 4 5 6 7 8 10 11 12 13 13 14 14 14 13 13 14 14 14 14 14 14 14 15 15
2 2 2 2 1 1 2 2 3 3 3 3 4 3 3 3 2 2 3 4 4 6 7 9 10 11 12 13 14 15 15 14 14 13 14 14 14 14 15 15 16 16 17 17
2 2 2 1 1 1 2 3 3 2 2 3 3 2 2 2 2 2 3 5 6 8 10 11 12 13 14 15 15 15 14 14 13 14 14 15 16 16 17 17 18 18 19 19
2 2 1 1 1 2 3 3 3 2 2 3 3 3 2 2 3 4 6 8 9 11 12 13 14 15 15 15 15 14 14 14 14 15 16 17 17 18 19 19 19 19 20 20
3 3 3 2 2 3 5 4 4 4 4 4 4 4 4 5 6 8 10 11 11 12 13 14 14 15 15 15 14 13 14 15 16 17 18 18 19 19 20 20 20 20 20 20
6 5 5 4 5 6 6 6 6 6 6 6 6 6 7 8 9 10 11 11 12 12 13 14 14 14 14 14 14 15 16 17 18 18 19 19 20 20 20 20 20 20 20 20
8 8 7 7 7 8 8 8 8 8 8 8 8 9 9 10 10 11 11 11 12 12 13 13 13 13 13 15 16 17 18 18 19 19 20 20 20 21 21 21 21 21 21 21
9 9 8 8 8 9 9 9 9 9 8 8 9 9 10 10 10 10 11 12 12 13 13 13 13 13 14 16 17 18 19 19 20 20 20 20 21 21 21 22 22 21 21 21
8 8 8 8 8 9 9 9 9 9 9 8 9 9 10 10 10 10 11 12 13 14 13 13 13 14 15 16 18 19 19 20 20 20 20 21 21 22 22 22 22 21 21 21